www.pogodaiklimat.ru

Погода и климат >> Архив погоды >> Украина >> Винница


АРХИВ ПОГОДЫ в Виннице

Время (UTC), дата Ветер
(напр.,м/с)
 
Видим.   Явления Облачность Т
(С)
Тd
(С)
f
(%)
Тe
(С)
Тes
(С)
Комфортность P
(гПа)
Po
(гПа)
Тmin
(С)
Tmax
(С)
R
(мм)
R24
(мм)
S
(см)
21 4.12 ЮВ 3 200 м туман ?/? +1.1 +1.1 100 -4 -4 по сезону 1017.0 980.2
00 5.12 ЮВ 3 200 м туман ?/? +0.9 +0.9 100 -4 -4 по сезону 1017.6 980.8
03 5.12 Ю 2 200 м туман ?/? +0.9 +0.9 100 -3 -3 по сезону 1017.6 980.8
06 5.12 З 3 600 м слабая морось {туман} туман ?/? +1.1 +1.1 100 -4 -4 по сезону 1018.5 981.7 +0.8 0.1 4
09 5.12 СЗ 4 2000 м слабый снег {дождь} 10/8 60 м
[Frnb As op]
+0.6 +0.1 96 -5 -5 по сезону 1020.1 983.1
12 5.12 СЗ 6 1600 м слабый ливневой дождь со снегом 10/10 60 м
[Cb cap]
+0.6 +0.1 96 -6 -6 по сезону 1020.5 983.5
15 5.12 СЗ 6 13 км {ливн. осадки} 10/10 300 м
[St]
+0.3 -0.5 94 -6 -6 по сезону 1021.9 984.8
18 5.12 СЗ 7 13 км {ливн. осадки} 10/10 480 м
[St]
+0.2 -0.9 92 -7 -7 по сезону 1023.0 985.9 +1.5 3
21 5.12 СЗ 7 13 км 9/8 400 м
[St Ac trans]
-0.2 -2.5 84 -7 -7 по сезону 1023.9 986.7
00 6.12 СЗ 5 13 км 10/10 540 м
[Sc]
-0.6 -2.7 86 -7 -7 по сезону 1024.4 987.1
03 6.12 СЗ 6 13 км 10/5 540 м
[Sc Ac und]
-0.5 -2.9 84 -7 -7 по сезону 1024.2 986.9
06 6.12 СЗ 6 13 км 8/8 600 м
[Sc]
-1.5 -3.2 88 -9 -9 по сезону 1024.8 987.4 -1.6 5
09 6.12 СЗ 6 13 км 8/8 540 м
[Sc]
-1.0 -4.2 79 -8 -8 по сезону 1025.7 988.3
12 6.12 СЗ 6 13 км 4/4 600 м
[Sc]
-0.6 -5.8 68 -7 -7 по сезону 1024.8 987.5
15 6.12 СЗ 6 13 км 5/5 540 м
[Sc]
-3.4 -6.9 77 -11 -11 холодно 1025.5 987.8
18 6.12 СЗ 3 13 км 4/0
[Ac trans]
-4.8 -7.6 81 -10 -10 прохладно 1025.9 987.9 -0.2
21 6.12 СЗ 4 13 км ясно -6.0 -7.5 89 -13 -13 холодно 1025.6 987.5
00 7.12 СЗ 3 13 км ясно -6.4 -8.0 88 -12 -12 прохладно 1024.9 986.8
03 7.12 З 2 3000 м дымка ясно -7.4 -7.9 96 -12 -12 прохладно 1023.9 985.7
06 7.12 штиль 0 13 км 10/0
[Ac und]
-7.0 -7.5 96 -8 -8 по сезону 1023.3 985.1 -7.8 4
09 7.12 штиль 0 1100 м дымка 10/10 90 м
[St]
-5.3 -5.6 98 -6 -6 по сезону 1022.3 984.4
12 7.12 ЮЗ 2 13 км 8/3 600 м
[Sc Ac trans]
-2.8 -5.4 82 -7 -6 по сезону 1019.5 982.1
15 7.12 Ю 2 13 км 9/3 600 м
[Sc Ac trans]
-3.4 -5.5 85 -7 -7 по сезону 1018.6 981.1
18 7.12 Ю 3 13 км 10/3 300 м
[St Ac und]
-4.7 -6.3 89 -10 -10 прохладно 1017.1 979.5 -2.2
21 7.12 ЮВ 4 13 км 10/4 300 м
[St Ac und]
-3.2 -5.2 86 -9 -9 по сезону 1015.3 978.0
00 8.12 Ю 4 13 км 10/4 300 м
[St Ac und]
-3.0 -5.0 86 -9 -9 по сезону 1013.5 976.3
03 8.12 Ю 4 13 км 10/4 600 м
[Sc Ac und]
-2.9 -4.9 86 -9 -9 по сезону 1012.1 974.9
06 8.12 ЮВ 5 13 км 10/4 600 м
[Sc Ac und]
-3.0 -4.3 91 -10 -10 по сезону 1011.5 974.3 -4.7 4
09 8.12 Ю 5 2800 м слабый ливневой дождь со снегом 10/10 240 м
[Cb cap]
-1.0 -1.7 95 -8 -8 по сезону 1011.1 974.2
12 8.12 Ю 5 4800 м слабый ливневой дождь 10/10 210 м
[Cb cap]
-0.8 -1.5 95 -7 -7 по сезону 1010.1 973.3
15 8.12 Ю 4 3900 м слабый ливневой дождь 10/10 180 м
[Cb cap]
-0.8 -1.5 95 -7 -7 по сезону 1009.7 972.9
18 8.12 Ю 4 2200 м слабая переохл. морось (гололёд) {ливн. осадки} [диам. сложн. отлож. 4 мм] 10/10 150 м
[St]
-0.1 -0.4 98 -6 -6 по сезону 1009.6 972.9 -0.1 0.9
21 8.12 ЮЗ 4 2800 м слабая переохл. морось (гололёд) 10/10 150 м
[St]
-0.3 -0.4 99 -6 -6 по сезону 1009.5 972.8
00 9.12 Ю 3 2800 м дымка {морось} 10/10 270 м
[St]
+0.6 +0.1 96 -4 -4 по сезону 1008.9 972.3
03 9.12 ЮЗ 2 1300 м слабый снег 10/9 120 м
[Frnb As op]
+0.5 +0.2 98 -3 -3 по сезону 1007.9 971.4
06 9.12 ЮЗ 2 1100 м слабая морось {снег} 10/10 60 м
[St]
+0.3 +0.4 100 -4 -4 по сезону 1007.3 970.8 -0.4 0.8 3
09 9.12 ЮЗ 2 1800 м в посл. час туман {морось} 10/10 60 м
[St]
+1.1 +0.6 96 -3 -3 по сезону 1006.8 970.4
12 9.12 ЮЗ 5 100 м туман {морось} ?/? +0.9 +0.9 100 -5 -5 по сезону 1006.1 969.7
15 9.12 Ю 4 100 м туман ?/? 0.0 0.0 100 -6 -6 по сезону 1005.2 968.7
18 9.12 Ю 4 300 м слабая морось {туман} туман ?/? 0.0 0.0 100 -6 -6 по сезону 1005.3 968.8 +1.6 0.2
21 9.12 Ю 3 600 м переохл. туман {морось} ?/? -0.3 -0.3 100 -5 -5 по сезону 1004.7 968.2
00 10.12 Ю 4 500 м переохл. туман {морось} [диам. гололёда 2 мм] ?/? -0.7 -0.8 99 -7 -7 по сезону 1004.8 968.2
03 10.12 Ю 2 1300 м дымка {туман} 10/10 60 м
[St]
-0.9 -1.3 97 -5 -5 по сезону 1004.5 967.9
06 10.12 Ю 4 200 м переохл. туман [диам. гололёда 2 мм] ?/? -0.8 -0.8 100 -7 -7 по сезону 1005.0 968.4 -1.1 0.0 3
09 10.12 Ю 2 3100 м в посл. час туман 10/10 60 м
[St]
-0.2 -0.5 98 -4 -4 по сезону 1005.8 969.2
12 10.12 ЮЗ 3 5000 м дымка {туман} 9/4 300 м
[St Ac trans]
+0.8 +0.3 96 -4 -4 по сезону 1005.7 969.3
15 10.12 ЮЗ 2 3100 м дымка 8/4 300 м
[St Ac trans]
+0.4 -0.1 96 -3 -3 по сезону 1006.5 970.0
18 10.12 ЮЗ 2 200 м переохл. туман [диам. гололёда 1 мм] ?/? -0.5 -0.6 99 -4 -4 по сезону 1007.0 970.4 +1.1
21 10.12 ЮЗ 2 600 м переохл. туман ?/? -0.4 -0.5 99 -4 -4 по сезону 1008.4 971.7
00 11.12 ЮЗ 2 1200 м в посл. час туман 8/4 300 м
[St Ac trans]
-1.0 -1.4 97 -5 -5 по сезону 1008.8 972.0
03 11.12 З 3 13 км 8/3 300 м
[St Ac trans]
-0.4 -1.0 96 -5 -5 по сезону 1009.4 972.7
06 11.12 З 3 4900 м дымка 8/3 300 м
[St Ac trans]
-0.8 -1.2 97 -6 -6 по сезону 1010.8 974.0 -1.3 3
09 11.12 З 3 9000 м дымка 10/6 500 м
[Sc Ac und]
-0.1 -0.9 94 -5 -5 по сезону 1011.9 975.1
12 11.12 СЗ 3 13 км 10/10 500 м
[St]
+1.2 -0.7 87 -3 -3 по сезону 1012.2 975.6
15 11.12 СЗ 2 13 км 10/10 480 м
[St]
+0.4 -1.2 89 -3 -3 по сезону 1013.8 977.0
18 11.12 З 3 13 км 8/4 600 м
[Sc Ac trans]
-0.4 -1.6 92 -5 -5 по сезону 1014.0 977.1 +1.4

 

Местоположение метеостанции Винница (Винницкая область, Украина): широта 49.23 долгота 28.60 высота над уровнем моря 298 м.

В архиве по умолчанию представлена погода в Виннице за последнюю неделю. Архивные данные за месяц целиком и за предыдущие месяцы, начиная с января 2011 года, Вы можете получить, выбрав интересующий диапазон дат из раскрывающегося списка и нажав кнопку "Ввод!".


*Определитесь, кто Вы:
робот инопланетянин человек

Внимание! Время в таблицах - всемирное. Для получения местного времени необходимо прибавить поправку, которая в Виннице равна 2 ч.

Смотрите также архив погоды в соседних городах и на ближайших метеорологических станциях:

Погода в Жмеринке (Винницкая область, Украина) (42 км)
Погода в Белополе (Винницкая область, Украина) (70 км)
Погода в Гайсине (Винницкая область, Украина) (75 км)
Погода в Хмельнике (Винницкая область, Украина) (76 км)
Погода в Могилев-Подольском (Винницкая область, Украина) (105 км)
Погода в Новой Ушице (Хмельницкая область, Украина) (106 км)
Погода в Жашкове (Черкасская область, Украина) (109 км)
Погода в Житомире (Житомирская область, Украина) (112 км)
Погода в Новоднестровске (Черновицкая область, Украина) (112 км)
Погода в Сороках (Молдова) (117 км)

Пояснения к столбцам:

Ветер - указаны скорость ветра в м/с - средняя за 10 мин, порывы в срок и между сроками (в фигурных скобках) и направление, откуда дует ветер: С - северный, СВ - северо-восточный, В - восточный, ЮВ - юго-восточный, Ю - южный, ЮЗ - юго-западный, З - западный, СЗ - северо-западный.
Видимость - горизонтальная дальность видимости в метрах или километрах. При видимости от 1 до 10 км при отсутствии осадков обычно наблюдается дымка, при ухудшении видимости до 1 км и менее - туман. В сухую погоду видимость может ухудшаться дымом, пылью или мглою.
Явления - указаны атмосферные явления, наблюдавшиеся в срок или в последний час перед сроком; фигурными скобками обозначены явления, наблюдавшиеся между сроками (за 1-3 часа до срока); квадратными скобками обозначены град или гололедные отложения с указанием их диаметра в мм.
Облачность - указаны через наклонную черту общая и нижняя облачность в баллах и высота нижней границы облаков в метрах; квадратными скобками обозначены формы облаков: Ci - перистые, Cs - перисто-слоистые, Cc - перисто-кучевые, Ac - высококучевые, As - высокослоистые, Sc - слоисто-кучевые, Ns - слоисто-дождевые, Cu - кучевые, Cb - кучево-дождевые. Подробнее классификацию облаков см. в Атласе облаков (PDF).
T - Температура воздуха - температура, измеренная на высоте 2 м над землей.
Td - Температура точки росы - температура, при понижении до которой содержащийся в воздухе водяной пар достигнет насыщения.
f - Относительная влажность воздуха - влажноcть воздуха, измеренная на высоте 2 м над землей.
Te - Эффективная температура - температура, которую ощущает одетый по сезону человек в тени. Характеристика душности погоды. При расчете учитывается влияние влажности воздуха и скорости ветра на теплоощущения человека.
Tes - Эффективная температура на солнце - температура, которую ощущает человек, с поправкой на солнечный нагрев. Характеристика знойности погоды. Зависит от высоты солнца над горизонтом, облачности и скорости ветра. Ночью, в пасмурную погоду, а также при ветре 12 м/с и более поправка равна нулю.
P - Атмосферное давление - приведенное к уровню моря атмосферное давление.
Po - Атмосферное давление - измеренное на уровне метеостанции атмосферное давление.
Tmin - Минимальная температура - минимум температуры воздуха на высоте 2 м над землей.
Tmax - Максимальная температура - максимум температуры воздуха на высоте 2 м над землей.
R - Количество осадков - Количество выпавших осадков за период времени, мм. При наведении курсора мыши на число - период времени, за который выпало указанное количество осадков.
R24 - Количество осадков - Количество выпавших осадков за 24 часа, мм.
S - Снежный покров - Высота снежного покрова, см. При наведении курсора мыши на число - состояние снежного покрова и степень покрытия местности в баллах.